User: anonymous   Login
Location: Unspecified
(0.0000°N, 0.0000°E)
Time: 13:42:44
(UTC+00:00)
Language:

LO-87 - Orbit

View from above orbital plane
View from above orbital plane
View from above satellite
View from above satellite

Ground track
Ground track

The orbit data is extracted from the following two-line orbital elements,

1 41557U 16033B   17114.86731022 +.00004412 +00000-0 +16967-3 0  9991
2 41557 097.4653 194.3857 0014160 189.0972 171.0012 15.26850692050295
Epoch (UTC): 24 April 2017 20:48:55
Eccentricity: 0.0014160
inclination: 97.4653°
perigee height: 475 km
apogee height: 495 km
right ascension of ascending node: 194.3857°
argument of perigee: 189.0972°
revolutions per day: 15.26850692
mean anomaly at epoch: 171.0012°
orbit number at epoch: 5029

The dashed part of the orbit path shows where the satellite is in the earth's shadow,  

DLR